Simultaneous Nadir Overpasses (SNOs) Predictions

Prediction of SNOs between AURA and NPP Satellite Orbit:

Table of predicted SNOs for the next 14.0 days since TLE Epoch: 5/14/2022
Index Date (AURA) Time (AURA) Lat,Lon (AURA) SZA (AURA ) Date (NPP) Time (NPP) Lat,Lon (NPP) SZA (NPP ) Distance(km) Time Diff (sec)
1 05/14/2022 19:58:24 -79.48, -42.88 106.21 05/14/2022 19:58:16 -79.49, -42.84 106.21 1.17 8
2 05/14/2022 20:47:45 79.67, 126.08 73.51 05/14/2022 20:48:55 79.66, 125.96 73.48 2.39 70
3 05/17/2022 11:25:30 79.33, -95.68 73.42 05/17/2022 11:24:28 79.33, -95.62 73.46 1.33 62
4 05/17/2022 12:14:53 -79.49, 73.04 106.82 05/17/2022 12:15:09 -79.48, 72.90 106.81 2.85 16
5 05/20/2022 03:41:56 79.39, 20.60 72.77 05/20/2022 03:41:18 79.39, 20.61 72.80 0.20 38
6 05/20/2022 04:31:16 -79.66,-169.85 107.65 05/20/2022 04:31:55 -79.67,-169.74 107.70 2.39 39
7 05/22/2022 19:58:21 79.50, 137.27 72.08 05/22/2022 19:58:07 79.51, 137.35 72.08 1.76 14
8 05/22/2022 20:47:44 -79.67, -53.95 108.17 05/22/2022 20:48:48 -79.66, -54.06 108.20 2.36 64
9 05/25/2022 11:25:27 -79.35, 84.43 108.16 05/25/2022 11:24:20 -79.35, 84.58 108.14 3.12 67



Historial Predications of SNOs between AURA and NPP
